DW6283 Weather Reports


Display with metric or nautical units.
time (UTC)temp
F
wind
direction
speed
MPH
gust
MPH
rain 1hr
in
rain 24hr
in
rain mn
in
humidity
%
barometer
mb
20260508221529 93 123 0.0 5.0 0.00 0.00 0.00 26 1012.7
20260508220026 94 86 0.0 4.0 0.00 0.00 0.00 26 1012.9
20260508214515 94 74 0.0 3.0 0.00 0.00 0.00 27 1013.1
20260508213007 94 99 0.0 5.0 0.00 0.00 0.00 26 1013.3
20260508211506 93 106 0.0 5.0 0.00 0.00 0.00 25 1013.4
20260508210004 93 183 0.0 5.0 0.00 0.00 0.00 28 1013.5
20260508204502 93 142 0.0 4.0 0.00 0.00 0.00 28 1013.6
20260508203107 93 92 0.0 4.0 0.00 0.00 0.00 29 1013.7
20260508201604 92 84 0.0 3.0 0.00 0.00 0.00 30 1013.9
20260508200055 92 107 0.0 2.0 0.00 0.00 0.00 32 1014.1
20260508194554 91 71 0.0 4.0 0.00 0.00 0.00 32 1014.4
20260508193054 91 94 0.0 5.0 0.00 0.00 0.00 35 1014.4
20260508191551 90 80 0.0 4.0 0.00 0.00 0.00 37 1014.6
20260508190048 89 62 0.0 4.0 0.00 0.00 0.00 39 1014.8
20260508184544 88 75 0.0 1.0 0.00 0.00 0.00 41 1014.9
20260508183042 87 111 0.0 2.0 0.00 0.00 0.00 41 1015.0
20260508181516 86 128 0.0 2.0 0.00 0.00 0.00 44 1015.3
20260508180012 86 93 0.0 2.0 0.00 0.00 0.00 45 1015.3
20260508174604 85 35 0.0 5.0 0.00 0.00 0.00 46 1015.4
20260508173048 84 42 0.0 2.0 0.00 0.00 0.00 48 1015.5
20260508171527 82 106 0.0 1.0 0.00 0.00 0.00 51 1015.6
20260508170022 81 107 0.0 2.0 0.00 0.00 0.00 53 1015.6
20260508164501 79 116 0.0 2.0 0.00 0.00 0.00 54 1015.6
20260508163058 77 120 0.0 3.0 0.00 0.00 0.00 57 1015.7
20260508161536 75 89 0.0 2.0 0.00 0.00 0.00 59 1015.7
20260508160034 73 90 0.0 1.0 0.00 0.00 0.00 62 1015.7
20260508154512 71 90 0.0 5.0 0.00 0.00 0.00 64 1015.7
20260508153008 70 90 0.0 3.0 0.00 0.00 0.00 67 1015.7
20260508151554 68 90 0.0 0.0 0.00 0.00 0.00 69 1015.6
20260508150048 66 90 0.0 1.0 0.00 0.00 0.00 74 1015.8
20260508144545 64 90 0.0 3.0 0.00 0.00 0.00 78 1015.7
20260508143042 61 90 0.0 0.0 0.00 0.00 0.00 83 1015.6
20260508141609 58 90 0.0 2.0 0.00 0.00 0.00 87 1015.3
20260508140042 56 90 0.0 1.0 0.00 0.00 0.00 89 1015.2
20260508134554 56 90 0.0 2.0 0.00 0.00 0.00 89 1015.1
20260508133043 55 90 0.0 0.0 0.00 0.00 0.00 89 1014.8
20260508131522 55 90 0.0 0.0 0.00 0.00 0.00 87 1014.6
20260508130021 55 90 0.0 0.0 0.00 0.00 0.00 87 1014.5
20260508124502 56 90 0.0 0.0 0.00 0.00 0.00 86 1014.5
20260508123002 56 90 0.0 1.0 0.00 0.00 0.00 86 1014.5
20260508121542 57 90 0.0 0.0 0.00 0.00 0.00 85 1014.3
20260508120041 57 90 0.0 1.0 0.00 0.00 0.00 85 1014.4
20260508114522 57 90 0.0 0.0 0.00 0.00 0.00 85 1014.3
20260508113027 58 90 0.0 1.0 0.00 0.00 0.00 85 1014.3
20260508111504 58 90 0.0 3.0 0.00 0.00 0.00 84 1014.2
20260508110001 59 90 0.0 5.0 0.00 0.00 0.00 83 1014.3
20260508104543 59 88 0.0 2.0 0.00 0.00 0.00 84 1014.2
20260508103041 59 82 0.0 4.0 0.00 0.00 0.00 85 1014.1
20260508101528 60 100 0.0 2.0 0.00 0.00 0.00 86 1014.0
20260508100021 60 100 0.0 3.0 0.00 0.00 0.00 86 1013.9
20260508094502 60 100 0.0 3.0 0.00 0.00 0.00 86 1013.8
20260508093003 61 100 0.0 1.0 0.00 0.00 0.00 86 1013.7
20260508091549 61 101 0.0 1.0 0.00 0.00 0.00 86 1013.8
20260508090042 62 101 0.0 2.0 0.00 0.00 0.00 85 1013.7
20260508084519 63 101 0.0 1.0 0.00 0.00 0.00 84 1013.8
20260508083017 63 101 0.0 2.0 0.00 0.00 0.00 84 1013.9
20260508081604 64 116 0.0 1.0 0.00 0.00 0.00 83 1014.0
20260508080056 64 116 0.0 1.0 0.00 0.00 0.00 82 1014.0
20260508074547 65 116 0.0 1.0 0.00 0.00 0.00 81 1014.0
20260508073035 65 116 0.0 0.0 0.00 0.00 0.00 79 1013.8
20260508071525 66 116 0.0 1.0 0.00 0.00 0.00 78 1013.8
20260508070018 67 116 0.0 1.0 0.00 0.00 0.00 77 1013.7
20260508064618 67 116 0.0 0.0 0.00 0.00 0.00 76 1013.7
20260508063058 68 116 0.0 1.0 0.00 0.00 0.00 75 1013.5
20260508061601 69 116 0.0 1.0 0.00 0.00 0.00 74 1013.6
20260508060040 69 117 0.0 1.0 0.00 0.00 0.00 72 1013.5
20260508054540 70 117 0.0 2.0 0.00 0.00 0.00 71 1013.6
20260508053024 71 118 0.0 1.0 0.00 0.00 0.00 69 1013.6
20260508051525 71 118 0.0 3.0 0.00 0.00 0.00 68 1013.6
20260508050004 72 118 0.0 2.0 0.00 0.00 0.00 67 1013.6
20260508044504 73 118 0.0 2.0 0.00 0.00 0.00 66 1013.7
20260508043058 73 118 0.0 3.0 0.00 0.00 0.00 65 1013.6
20260508041551 74 115 0.0 2.0 0.00 0.00 0.00 63 1013.4
20260508040051 75 84 0.0 1.0 0.00 0.00 0.00 61 1013.2
20260508034550 76 84 0.0 5.0 0.00 0.00 0.00 58 1013.1
20260508033049 77 94 0.0 3.0 0.00 0.00 0.00 56 1012.9
20260508031549 78 96 0.0 3.0 0.00 0.00 0.00 53 1012.7
20260508030048 79 94 0.0 3.0 0.00 0.00 0.00 51 1012.6
20260508024547 80 100 0.0 2.0 0.00 0.00 0.00 49 1012.5
20260508023030 82 89 0.0 3.0 0.00 0.00 0.00 47 1012.3
20260508021534 83 61 0.0 5.0 0.00 0.00 0.00 45 1012.2
20260508020010 84 99 0.0 6.0 0.00 0.00 0.00 44 1012.2
20260508014513 85 94 0.0 5.0 0.00 0.00 0.00 42 1012.1
20260508013052 86 144 0.0 3.0 0.00 0.00 0.00 41 1012.1
20260508011552 87 138 0.0 5.0 0.00 0.00 0.00 40 1012.0
20260508010035 88 86 0.0 3.0 0.00 0.00 0.00 39 1012.1
20260508004538 88 111 0.0 4.0 0.00 0.00 0.00 39 1012.2
20260508003016 89 96 0.0 7.0 0.00 0.00 0.00 38 1012.2
20260508001517 89 88 0.0 7.0 0.00 0.00 0.00 38 1012.4
20260508000054 90 171 0.0 3.0 0.00 0.00 0.00 37 1012.5
20260507234553 90 140 0.0 3.0 0.00 0.00 0.00 37 1012.6
20260507233038 91 59 0.0 5.0 0.00 0.00 0.00 37 1012.7
20260507231533 91 122 0.0 7.0 0.00 0.00 0.00 36 1012.9
20260507230014 91 126 0.0 7.0 0.00 0.00 0.00 36 1013.1
20260507224513 91 49 0.0 7.0 0.00 0.00 0.00 35 1013.2
20260507223054 92 126 0.0 5.0 0.00 0.00 0.00 35 1013.5